Location: *
(39.6167°S, 171.5333°W)
Time: 19:15:29
(UTC+00:00)

Cosmos 1076 Rocket - Pass Details

Date: 13 May 2021
Orbit: 588 x 613 km, 82.5° (Epoch: 20 June)

Event Time Altitude Azimuth Distance (km) Brightness Sun altitude
Rises 16:38:50 0° 183° (S) 2,909 6.9 -20.0°
Reaches altitude 10° 16:41:07 10° 178° (S) 1,999 6.1 -19.5°
Maximum altitude 16:45:28 54° 100° (E) 758 4.3 -18.7°
Drops below altitude 10° 16:49:46 10° 22° (NNE) 1,978 6.5 -17.9°
Sets 16:52:01 0° 17° (NNE) 2,875 7.4 -17.4°
